[[{"header":{"parameterUnit":"m.s-1","parameterCategory":2,"la1":30.2991,"la2":30.254,"lo1":-89.0895,"lo2":-89.0444,"dy":0.0017,"dx":0.0017,"nx":28,"ny":28,"refTime":"2026-01-02T03:00:00:Z","depth":"0","parameterNumber":2,"parameterNumberName":"U-component_of_CURRENTS"},"data":[0,0,0,0,0,0,0,0,0,0,0,0,0,0,0,0,0,0,0,0,0,0,0,0,0,0,0,0,0,0,0,0,0,0,0,0,0,0,0,0,0,0,0,0,0,0,0,0,0,0,0,0,0,0,0,0,0,0,0.3199,0.32,0,0.3271,0.3272,0.3272,0.3278,0.3278,0.3277,0.3276,0.3266,0.3267,0.3267,0,0,0,0,0,0,0,0,0,0,0,0,0,0.3082,0.3084,0.3199,0.32,0.3201,0.3271,0.3272,0.3272,0.3278,0.3278,0.3277,0.3276,0.3266,0.3267,0.3267,0,0,0,0,0,0,0,0,0,0,0,0,0,0.314,0.3085,0.3199,0.3213,0.3216,0.3271,0.3272,0.3273,0.3279,0.3278,0.3277,0.3276,0.3266,0.3267,0.3267,0.3289,0,0,0.3269,0.3269,0,0,0,0,0,0,0,0,0.3136,0.3144,0.321,0.3213,0.3215,0.3266,0.3227,0.3275,0.3279,0.3253,0.3276,0.3275,0.326,0.3261,0.3276,0.3289,0.3288,0.3269,0.3269,0.3269,0.3269,0,0,0,0,0,0,0,0.3132,0.3141,0.3226,0.3211,0.3214,0.3222,0.3229,0.3236,0.3258,0.3255,0.3256,0.3267,0.3261,0.3276,0.3276,0.3288,0.3269,0.3269,0.3269,0.327,0.3277,0.3277,0,0,0,0,0,0,0.3127,0.3137,0.3224,0.3228,0.3174,0.3225,0.3233,0.3249,0.326,0.3262,0.3268,0.3267,0.3275,0.3275,0.3275,0.3287,0.3269,0.327,0.327,0.3277,0.3277,0.3277,0,0,0,0,0,0,0.3125,0.3135,0.3221,0.3185,0.3197,0.3228,0.3247,0.3251,0.3267,0.3271,0.3271,0.3278,0.3274,0.3274,0.327,0.3287,0.327,0.327,0.3277,0.3277,0.3277,0.3321,0,0,0,0,0,0,0.3121,0.3133,0.3145,0.3185,0.3199,0.325,0.3248,0.3253,0.3276,0.3275,0.328,0.3278,0.3274,0.3269,0.327,0.3288,0.3271,0.3277,0.3277,0.3277,0.332,0.3322,0.3325,0,0,0,0,0,0.3117,0.3133,0.3146,0.3156,0.3214,0.3251,0.3258,0.3276,0.3277,0.3285,0.3279,0.3278,0.3268,0.3269,0.3271,0.3289,0.3277,0.3277,0.3277,0.3318,0.3322,0.3324,0,0,0,0,0,0,0.3084,0.3136,0.3151,0.3181,0.3213,0.3252,0.3267,0.328,0.3287,0.3283,0.328,0.3278,0.328,0.3274,0.3275,0.3287,0.3272,0.3272,0.3303,0.3306,0.3309,0.3376,0.3271,0,0,0,0,0,0.3085,0.3112,0.3159,0.3182,0.3201,0.3236,0.3255,0.3268,0.3281,0.3285,0.3285,0.3281,0.3283,0.3284,0.328,0.3293,0.3367,0.3302,0.3304,0.3307,0.3361,0.35,0.3523,0.3276,0.3276,0.3276,0,0,0.308,0.3112,0.3128,0.3177,0.3206,0.3229,0.3244,0.3274,0.3289,0.3282,0.329,0.3289,0.3285,0.3293,0.3294,0.3291,0.3406,0.3306,0.3309,0.3363,0.3503,0.3528,0.355,0.3276,0.3276,0.3276,0,0,0.3076,0.3112,0.3131,0.3162,0.3206,0.3227,0.3235,0.3273,0.3288,0.3296,0.3297,0.3323,0.3299,0.3332,0.3337,0.3356,0.3411,0.3326,0.3405,0.3538,0.3561,0.3583,0.368,0.371,0.3332,0.3332,0.3332,0,0.3061,0.3096,0.314,0.3165,0.3189,0.3224,0.3242,0.3268,0.3293,0.3338,0.3293,0.3357,0.3334,0.3415,0.3402,0.3372,0.3443,0.3394,0.3549,0.3572,0.3594,0.3688,0.3721,0.3334,0.3334,0.3334,0.3333,0,0.3074,0.31,0.3114,0.3156,0.3187,0.3209,0.3253,0.3287,0.3298,0.3344,0.342,0.3417,0.3482,0.3452,0.3423,0.3561,0.3558,0.3536,0.3556,0.3623,0.3715,0.3749,0.3337,0.3336,0.3336,0.3335,0,0,0.3034,0.3105,0.3108,0.3136,0.3184,0.3216,0.3258,0.3336,0.3417,0.3438,0.3561,0.3553,0.3612,0.3624,0.362,0.3712,0.3881,0.3686,0.3692,0.381,0.4172,0.4137,0.417,0.3895,0.3901,0.3907,0.4165,0,0.3021,0.3061,0.31,0.3137,0.3165,0.3228,0.328,0.3365,0.3434,0.3561,0.3636,0.3728,0.366,0.371,0.38,0.3869,0.3978,0.3814,0.4068,0.4076,0.4061,0.4211,0.4029,0.4243,0.4198,0.4204,0.4208,0,0.3015,0.3045,0.3075,0.3163,0.3185,0.3212,0.335,0.3409,0.3601,0.3673,0.3822,0.3897,0.4054,0.3975,0.4201,0.4102,0.4158,0.4199,0.4209,0.4204,0.4107,0.4172,0.4306,0.4246,0.426,0.4256,0.4252,0,0.2975,0.3032,0.3055,0.3078,0.3176,0.3221,0.3284,0.3451,0.356,0.3787,0.3915,0.4102,0.4221,0.4345,0.4421,0.4339,0.4671,0.4568,0.4603,0.4598,0.4513,0.449,0.4652,0.4773,0.4772,0.4772,0.4771,0,0.2952,0.2976,0.3041,0.3059,0.3136,0.321,0.3347,0.3451,0.3659,0.384,0.3989,0.4175,0.4325,0.4514,0.4548,0.4709,0.4793,0.469,0.47,0.4512,0.4488,0.4483,0.4442,0.4781,0.4779,0.4777,0.4776,0,0.2921,0.2951,0.2999,0.3085,0.312,0.3185,0.337,0.3494,0.3676,0.3927,0.4017,0.4293,0.4539,0.468,0.49,0.488,0.4909,0.5043,0.4796,0.4773,0.4692,0.4658,0.4672,0.4537,0.5137,0.5138,0.5139,0,0.2918,0.293,0.3012,0.3061,0.3099,0.3213,0.3313,0.3489,0.3639,0.3998,0.4128,0.4443,0.4649,0.4968,0.5013,0.5144,0.5,0.5048,0.4857,0.4743,0.4715,0.4479,0.4344,0.4744,0.4742,0.474,0.4738,0,0.293,0.2947,0.2999,0.3078,0.316,0.3276,0.3424,0.3524,0.377,0.3961,0.4237,0.4424,0.4744,0.4827,0.5012,0.5044,0.4825,0.5012,0.4983,0.4532,0.4205,0.4058,0.4493,0.4722,0.4723,0.4724,0.4725,0.4726,0.2963,0.3008,0.3068,0.314,0.3225,0.3321,0.3388,0.3541,0.3725,0.3961,0.4191,0.4373,0.4623,0.4843,0.4854,0.4803,0.4729,0.4692,0.4697,0.4495,0.4259,0.4656,0.483,0.4832,0.4834,0.4836,0.4837,0,0.305,0.3089,0.314,0.3232,0.3294,0.3336,0.3463,0.3488,0.3616,0.3826,0.4011,0.4224,0.4363,0.4516,0.4613,0.4516,0.4226,0.445,0.4085,0.3993,0.4459,0.4335,0.4302,0.4302,0.4302,0.4302,0.4302,0.4302,0.3111,0.3187,0.3192,0.3281,0.3325,0.337,0.3405,0.3396,0.3474,0.3556,0.365,0.3803,0.4212,0.4533,0.4513,0.4374,0.4061,0.3893,0.39,0.4259,0.4279,0.4298,0.4174,0.4108,0.4108,0.3203,0.3197,0.3193]},{"header":{"parameterUnit":"m.s-1","parameterCategory":2,"la1":30.2991,"la2":30.254,"lo1":-89.0895,"lo2":-89.0444,"dy":0.0017,"dx":0.0017,"nx":28,"ny":28,"refTime":"2026-01-02T03:00:00:Z","depth":"0","parameterNumber":3,"parameterNumberName":"V-component_of_CURRENTS"},"data":[0,0,0,0,0,0,0,0,0,0,0,0,0,0,0,0,0,0,0,0,0,0,0,0,0,0,0,0,0,0,0,0,0,0,0,0,0,0,0,0,0,0,0,0,0,0,0,0,0,0,0,0,0,0,0,0,0,0,0.0166,0.0166,0,0.0088,0.0087,0.0086,0.0024,0.0023,0.0023,0.0022,-0.0121,-0.0124,-0.0127,0,0,0,0,0,0,0,0,0,0,0,0,0,0.0199,0.0199,0.0167,0.0166,0.0165,0.0089,0.0087,0.0086,0.0024,0.0023,0.0023,0.0022,-0.012,-0.0124,-0.0128,0,0,0,0,0,0,0,0,0,0,0,0,0,0.0157,0.0199,0.0167,0.0126,0.0122,0.0089,0.0087,0.0086,0.0024,0.0023,0.0023,0.0022,-0.0118,-0.0123,-0.0128,-0.0147,0,0,-0.0144,-0.0146,0,0,0,0,0,0,0,0,0.016,0.0156,0.0133,0.0129,0.0124,0.0067,0.0046,0.0005,0.0024,0.0059,0.0022,0.0022,-0.0062,-0.0072,-0.0087,-0.0154,-0.016,-0.0144,-0.0148,-0.015,-0.0151,0,0,0,0,0,0,0,0.0163,0.0158,0.0133,0.0132,0.0127,0.0091,0.0084,0.0038,-0.0,0.0056,0.0051,0.0047,-0.0065,-0.0082,-0.0091,-0.0162,-0.0144,-0.0149,-0.0152,-0.0154,-0.0255,-0.0254,0,0,0,0,0,0,0.0181,0.0162,0.0136,0.0131,0.0143,0.0091,0.0084,0.0084,0.0002,-0.001,0.0047,0.0044,-0.0073,-0.0085,-0.0097,-0.0112,-0.015,-0.0154,-0.0157,-0.0255,-0.0255,-0.0254,0,0,0,0,0,0,0.0182,0.018,0.0139,0.0146,0.0138,0.0092,0.0092,0.0083,0.0068,-0.0003,-0.0017,0.0042,-0.0074,-0.0089,-0.0132,-0.0119,-0.0157,-0.0161,-0.0255,-0.0255,-0.0254,-0.015,0,0,0,0,0,0,0.0183,0.0181,0.0187,0.0148,0.0139,0.0129,0.0093,0.0082,0.0067,0.0062,-0.0013,-0.0027,-0.0076,-0.0124,-0.0137,-0.0126,-0.0165,-0.0256,-0.0255,-0.0255,-0.0154,-0.0146,-0.0139,0,0,0,0,0,0.0185,0.0201,0.0188,0.0185,0.015,0.013,0.0122,0.0084,0.0068,0.0067,0.0016,-0.0024,-0.0129,-0.0128,-0.0143,-0.0134,-0.0256,-0.0255,-0.0255,-0.0158,-0.0148,-0.014,0,0,0,0,0,0,0.022,0.0195,0.018,0.0188,0.0165,0.012,0.0118,0.0093,0.0053,0.0048,-0.0022,-0.0039,-0.0073,-0.0117,-0.0114,-0.0161,-0.0198,-0.0201,-0.0119,-0.0111,-0.0104,-0.0059,-0.017,0,0,0,0,0,0.0232,0.0237,0.0205,0.0212,0.0204,0.0163,0.015,0.0127,0.0088,0.007,0.0019,-0.0035,-0.0081,-0.0106,-0.0155,-0.0179,-0.02,-0.0184,-0.0176,-0.0169,-0.0144,-0.015,-0.0139,-0.0251,-0.0251,-0.0251,0,0,0.0249,0.0235,0.0238,0.0219,0.0197,0.0196,0.0153,0.0144,0.0144,0.0061,0.0042,-0.0014,-0.0083,-0.0111,-0.0129,-0.0145,-0.0153,-0.0168,-0.0162,-0.0139,-0.0147,-0.0136,-0.0126,-0.0251,-0.0251,-0.0251,0,0,0.0287,0.0272,0.0289,0.0276,0.0254,0.0226,0.0229,0.019,0.0175,0.0148,0.0092,0.0058,-0.0024,-0.0054,-0.0084,-0.0063,-0.0116,-0.0094,-0.0017,-0.0023,-0.0013,-0.0005,-0.003,-0.0025,-0.0087,-0.0087,-0.0087,0,0.0307,0.0324,0.029,0.0303,0.0301,0.0246,0.0265,0.0242,0.0194,0.0203,0.0154,0.0083,0.0012,0.0009,0.0001,-0.0042,-0.0065,-0.0044,-0.001,-0.0002,0.0005,-0.0023,-0.0018,-0.0082,-0.0082,-0.0083,-0.0083,0,0.0357,0.0369,0.0379,0.0376,0.0367,0.0375,0.0341,0.0339,0.0306,0.0286,0.0277,0.0193,0.0163,0.0121,0.0055,0.0074,0.0033,0.0,-0.0024,0.0023,-0.0011,-0.0008,-0.0074,-0.0076,-0.0078,-0.0079,0,0,0.0403,0.0415,0.0417,0.044,0.041,0.0417,0.0424,0.043,0.0478,0.0408,0.0464,0.0355,0.0329,0.0294,0.0222,0.0197,0.0196,0.0118,0.0115,0.0109,0.0168,0.014,0.014,0.0167,0.0168,0.017,0.012,0,0.0452,0.0507,0.0488,0.0535,0.0561,0.0528,0.0557,0.0557,0.0545,0.0584,0.0516,0.0529,0.0391,0.0396,0.0344,0.0242,0.0211,0.0212,0.011,0.0107,0.009,0.0146,0.0108,0.0061,0.0123,0.0123,0.0123,0,0.0505,0.0539,0.0599,0.0652,0.0663,0.068,0.0741,0.0765,0.0795,0.0797,0.079,0.0742,0.0698,0.0585,0.0442,0.0446,0.0319,0.0226,0.0222,0.017,0.0087,0.0024,0.0064,-0.0178,0.0128,0.0128,0.0127,0,0.0567,0.0616,0.0674,0.0684,0.0728,0.0766,0.0798,0.0837,0.0915,0.0957,0.1025,0.0941,0.094,0.0774,0.0551,0.0505,0.0399,0.0319,0.0178,0.0172,0.0111,0.0099,-0.0076,0.0242,0.0242,0.0243,0.0243,0,0.0629,0.0678,0.0716,0.0751,0.0864,0.0859,0.0996,0.1022,0.1115,0.1253,0.1155,0.1245,0.0988,0.0888,0.0648,0.0432,0.0475,0.0216,0.0174,0.0142,0.0134,-0.0105,-0.0241,0.0241,0.0241,0.0241,0.0242,0,0.0693,0.0707,0.0796,0.0864,0.0896,0.0987,0.1137,0.1255,0.1312,0.1493,0.1528,0.1485,0.1354,0.1083,0.0828,0.0589,0.0223,0.0282,0.025,0.0207,-0.0164,-0.0291,-0.0492,-0.0607,0.0123,0.0122,0.0122,0,0.0736,0.0782,0.0889,0.0972,0.1008,0.1146,0.1264,0.1351,0.1499,0.1658,0.1772,0.1704,0.169,0.1294,0.0851,0.0457,0.0218,0.0182,0.0087,-0.0164,-0.0337,-0.0436,-0.0525,0.0028,0.0026,0.0025,0.0024,0,0.0834,0.0864,0.0948,0.1111,0.1235,0.1408,0.1581,0.1726,0.1871,0.2013,0.218,0.2178,0.179,0.137,0.0819,0.0535,-0.0005,0.0148,-0.0099,-0.0401,-0.0531,-0.0667,0.002,0.0014,0.0015,0.0016,0.0017,0.0017,0.0925,0.1013,0.1123,0.128,0.1441,0.1667,0.1843,0.2041,0.2287,0.2524,0.2477,0.2491,0.1875,0.1108,0.0682,-0.0099,-0.0097,-0.0347,-0.0475,-0.0546,-0.0674,-0.0006,-0.0064,-0.0064,-0.0063,-0.0063,-0.0062,0,0.1055,0.1143,0.129,0.1506,0.171,0.1763,0.2061,0.2254,0.2559,0.2706,0.2822,0.2497,0.1745,0.0989,-0.0066,-0.0624,-0.0834,-0.0913,-0.1087,-0.1143,-0.0542,-0.0565,-0.0747,-0.0747,-0.0747,-0.0746,-0.0746,-0.0746,0.1138,0.1295,0.1358,0.1696,0.186,0.2156,0.2339,0.26,0.2763,0.2953,0.2922,0.2864,0.2305,0.0398,-0.086,-0.1153,-0.1547,-0.1668,-0.1816,-0.1448,-0.1405,-0.1365,-0.1419,-0.1778,-0.1779,-0.2379,-0.2385,-0.239]}],[{"header":{"parameterUnit":"m.s-1","parameterCategory":2,"la1":30.2991,"la2":30.254,"lo1":-89.0895,"lo2":-89.0444,"dy":0.0017,"dx":0.0017,"nx":28,"ny":28,"refTime":"2026-01-02T03:00:00:Z","depth":"2","parameterNumber":2,"parameterNumberName":"U-component_of_CURRENTS"},"data":[0,0,0,0,0,0,0,0,0,0,0,0,0,0,0,0,0,0,0,0,0,0,0,0,0,0,0,0,0,0,0,0,0,0,0,0,0,0,0,0,0,0,0,0,0,0,0,0,0,0,0,0,0,0,0,0,0,0,0.2998,0.2999,0,0.3073,0.3074,0.3074,0.3088,0.3088,0.3087,0.3087,0.3094,0.3094,0.3095,0,0,0,0,0,0,0,0,0,0,0,0,0,0.2884,0.2886,0.2997,0.2999,0.3,0.3073,0.3074,0.3074,0.3088,0.3088,0.3087,0.3087,0.3094,0.3094,0.3095,0,0,0,0,0,0,0,0,0,0,0,0,0,0.2941,0.2886,0.2997,0.3017,0.302,0.3073,0.3074,0.3075,0.3088,0.3088,0.3087,0.3086,0.3093,0.3094,0.3095,0.3111,0,0,0.3097,0.3098,0,0,0,0,0,0,0,0,0.2938,0.2945,0.3013,0.3016,0.3019,0.3073,0.3036,0.3084,0.3088,0.3059,0.3087,0.3086,0.3083,0.3084,0.3097,0.3111,0.3112,0.3097,0.3098,0.3098,0.3099,0,0,0,0,0,0,0,0.2934,0.2942,0.3025,0.3015,0.3018,0.3029,0.3036,0.3046,0.307,0.3062,0.3064,0.3077,0.3083,0.3096,0.3097,0.3112,0.3097,0.3098,0.3099,0.3099,0.3113,0.3113,0,0,0,0,0,0,0.293,0.2938,0.3022,0.3027,0.2979,0.3032,0.304,0.3054,0.3071,0.3075,0.3077,0.3077,0.3095,0.3096,0.3097,0.3119,0.3098,0.3099,0.31,0.3113,0.3113,0.3113,0,0,0,0,0,0,0.2927,0.2937,0.3019,0.2986,0.2998,0.3035,0.3051,0.3056,0.3079,0.3084,0.3085,0.3096,0.3095,0.3096,0.3098,0.3119,0.3099,0.31,0.3113,0.3113,0.3113,0.3162,0,0,0,0,0,0,0.2924,0.2935,0.295,0.2986,0.3,0.3051,0.3052,0.3058,0.3089,0.309,0.3101,0.3101,0.3094,0.3097,0.3099,0.312,0.3101,0.3113,0.3113,0.3113,0.3161,0.3164,0.3166,0,0,0,0,0,0.2919,0.2938,0.295,0.2961,0.3017,0.3052,0.306,0.3082,0.309,0.3101,0.3099,0.3101,0.3097,0.3097,0.31,0.3122,0.3113,0.3113,0.3113,0.3159,0.3163,0.3166,0,0,0,0,0,0,0.2894,0.2943,0.2956,0.2988,0.3019,0.3055,0.3076,0.3092,0.3104,0.3104,0.3103,0.3102,0.311,0.3104,0.3105,0.3121,0.3104,0.3105,0.3139,0.3143,0.3145,0.3216,0.3101,0,0,0,0,0,0.2897,0.2923,0.2967,0.2991,0.3012,0.3048,0.3069,0.3083,0.3099,0.3106,0.3109,0.3109,0.3112,0.3117,0.3112,0.3129,0.3189,0.3141,0.3144,0.3146,0.3203,0.3321,0.3342,0.3112,0.3112,0.3112,0,0,0.2895,0.2924,0.2941,0.2988,0.3018,0.3039,0.3058,0.3092,0.3108,0.3103,0.3119,0.3119,0.3115,0.3125,0.313,0.3125,0.323,0.3146,0.3149,0.3205,0.3323,0.3347,0.3368,0.3112,0.3112,0.3112,0,0,0.2895,0.2932,0.2953,0.298,0.3025,0.3044,0.3056,0.3095,0.3114,0.3125,0.3128,0.316,0.3138,0.317,0.3175,0.3197,0.3238,0.3168,0.3252,0.3364,0.3386,0.3407,0.3471,0.3497,0.3175,0.3175,0.3175,0,0.2888,0.2919,0.2962,0.2985,0.3009,0.3045,0.3065,0.3091,0.3119,0.3167,0.3126,0.3191,0.3174,0.3253,0.3246,0.3214,0.3266,0.324,0.3376,0.3397,0.3417,0.3479,0.3507,0.3177,0.3177,0.3177,0.3176,0,0.2898,0.2925,0.2942,0.2979,0.301,0.3033,0.3076,0.3113,0.3131,0.3176,0.3255,0.3254,0.3316,0.3292,0.327,0.3402,0.3385,0.3365,0.3382,0.3445,0.3502,0.3531,0.318,0.318,0.3179,0.3178,0,0,0.2867,0.2933,0.2938,0.2965,0.3009,0.3041,0.3085,0.3165,0.3244,0.3268,0.3387,0.3392,0.3448,0.3461,0.3459,0.3546,0.3692,0.3518,0.3523,0.3609,0.3923,0.3802,0.382,0.3701,0.3707,0.3712,0.3892,0,0.2857,0.2894,0.2931,0.2969,0.2996,0.3058,0.3109,0.3194,0.3262,0.3382,0.346,0.3549,0.3494,0.3544,0.3626,0.3683,0.3776,0.3644,0.3828,0.3834,0.3743,0.3854,0.356,0.3688,0.392,0.3925,0.3928,0,0.285,0.2879,0.291,0.2998,0.3021,0.3049,0.3185,0.3243,0.3424,0.3495,0.3635,0.3703,0.3851,0.3784,0.3972,0.389,0.393,0.3962,0.3969,0.388,0.3769,0.3668,0.3731,0.3976,0.3972,0.3969,0.3966,0,0.2813,0.2871,0.2898,0.2918,0.3013,0.3064,0.313,0.3289,0.3395,0.3607,0.3726,0.389,0.3994,0.4096,0.4154,0.4086,0.4357,0.4264,0.4203,0.4192,0.3995,0.3956,0.4441,0.4441,0.444,0.444,0.4439,0,0.2789,0.2817,0.2887,0.2904,0.2988,0.3059,0.3195,0.33,0.3491,0.3658,0.38,0.3952,0.4086,0.4238,0.4259,0.4332,0.445,0.4275,0.4262,0.3991,0.3952,0.4242,0.4217,0.4447,0.4445,0.4444,0.4443,0,0.2758,0.2788,0.2841,0.2933,0.2973,0.3043,0.3226,0.3335,0.3516,0.3742,0.3829,0.4055,0.4223,0.4341,0.451,0.4457,0.454,0.4536,0.4185,0.4127,0.4263,0.4238,0.4483,0.4481,0.4479,0.4478,0.4477,0,0.2754,0.2768,0.2862,0.2912,0.2955,0.3074,0.3164,0.3336,0.3464,0.3791,0.3897,0.414,0.4261,0.4455,0.4444,0.4498,0.4561,0.424,0.4053,0.4321,0.4285,0.4261,0.4239,0.3794,0.3787,0.3782,0.3777,0,0.2762,0.2788,0.2839,0.2925,0.3004,0.3097,0.3236,0.331,0.3537,0.3718,0.3919,0.4038,0.4228,0.4134,0.4215,0.4194,0.4196,0.4125,0.458,0.3808,0.3681,0.364,0.364,0.3728,0.3733,0.3737,0.374,0.3742,0.279,0.283,0.2891,0.2952,0.3064,0.3097,0.3134,0.3236,0.3373,0.3546,0.3741,0.3806,0.3881,0.3806,0.3736,0.3697,0.3944,0.3779,0.3793,0.3814,0.3682,0.3556,0.3554,0.3558,0.3561,0.3564,0.3567,0,0.2823,0.2863,0.2919,0.3,0.3058,0.3106,0.3191,0.3135,0.3192,0.3325,0.3431,0.3198,0.3176,0.326,0.3127,0.3134,0.3068,0.3013,0.2908,0.2964,0.3011,0.2832,0.2483,0.2478,0.2474,0.247,0,0,0.2849,0.2873,0.2857,0.2933,0.3008,0.2984,0.2974,0.2885,0.2914,0.2817,0.2838,0.3035,0.3191,0.2777,0.2752,0.2601,0.2746,0.2506,0.3396,0.3333,0.3373,0.3498,0.3291,0,0,0,0,0]},{"header":{"parameterUnit":"m.s-1","parameterCategory":2,"la1":30.2991,"la2":30.254,"lo1":-89.0895,"lo2":-89.0444,"dy":0.0017,"dx":0.0017,"nx":28,"ny":28,"refTime":"2026-01-02T03:00:00:Z","depth":"2","parameterNumber":3,"parameterNumberName":"V-component_of_CURRENTS"},"data":[0,0,0,0,0,0,0,0,0,0,0,0,0,0,0,0,0,0,0,0,0,0,0,0,0,0,0,0,0,0,0,0,0,0,0,0,0,0,0,0,0,0,0,0,0,0,0,0,0,0,0,0,0,0,0,0,0,0,0.0098,0.0097,0,0.0024,0.0023,0.0022,-0.0037,-0.0038,-0.0038,-0.0039,-0.0176,-0.0179,-0.0182,0,0,0,0,0,0,0,0,0,0,0,0,0,0.0128,0.0128,0.0098,0.0097,0.0096,0.0024,0.0023,0.0021,-0.0037,-0.0038,-0.0038,-0.0039,-0.0174,-0.0178,-0.0182,0,0,0,0,0,0,0,0,0,0,0,0,0,0.0088,0.0128,0.0098,0.006,0.0056,0.0024,0.0023,0.0021,-0.0037,-0.0038,-0.0038,-0.0039,-0.0173,-0.0178,-0.0183,-0.0202,0,0,-0.0198,-0.02,0,0,0,0,0,0,0,0,0.0091,0.0087,0.0066,0.0062,0.0058,0.0004,-0.0017,-0.0056,-0.0037,-0.0004,-0.0039,-0.0039,-0.012,-0.0129,-0.0144,-0.0208,-0.0214,-0.0198,-0.0201,-0.0203,-0.0205,0,0,0,0,0,0,0,0.0094,0.009,0.0066,0.0065,0.006,0.0026,0.002,-0.0025,-0.0061,-0.0007,-0.0011,-0.0016,-0.0123,-0.0139,-0.0148,-0.0216,-0.0198,-0.0203,-0.0206,-0.0208,-0.0306,-0.0305,0,0,0,0,0,0,0.0111,0.0093,0.0068,0.0064,0.0076,0.0027,0.002,0.002,-0.0059,-0.007,-0.0015,-0.0018,-0.013,-0.0142,-0.0153,-0.0169,-0.0203,-0.0208,-0.0211,-0.0306,-0.0306,-0.0305,0,0,0,0,0,0,0.0112,0.011,0.0071,0.0078,0.0071,0.0027,0.0027,0.0019,0.0005,-0.0064,-0.0077,-0.0019,-0.0131,-0.0146,-0.0186,-0.0176,-0.021,-0.0215,-0.0306,-0.0306,-0.0305,-0.0209,0,0,0,0,0,0,0.0114,0.0111,0.0118,0.008,0.0071,0.0062,0.0028,0.0018,0.0004,-0.0,-0.0071,-0.0085,-0.0133,-0.0178,-0.0191,-0.0183,-0.0219,-0.0307,-0.0306,-0.0306,-0.0213,-0.0206,-0.0199,0,0,0,0,0,0.0115,0.0131,0.0119,0.0116,0.0082,0.0063,0.0056,0.0021,0.0005,0.0005,-0.0043,-0.0083,-0.0183,-0.0182,-0.0197,-0.019,-0.0307,-0.0306,-0.0306,-0.0216,-0.0207,-0.02,0,0,0,0,0,0,0.015,0.0126,0.0111,0.0119,0.0097,0.0054,0.0053,0.003,-0.0008,-0.0012,-0.008,-0.0096,-0.0129,-0.0172,-0.0169,-0.0217,-0.0251,-0.0253,-0.0178,-0.017,-0.0164,-0.0121,-0.0223,0,0,0,0,0,0.0162,0.0166,0.0135,0.0143,0.0136,0.0096,0.0085,0.0063,0.0026,0.0009,-0.004,-0.0093,-0.0138,-0.0162,-0.021,-0.0235,-0.0263,-0.024,-0.0233,-0.0227,-0.0203,-0.0226,-0.0218,-0.0303,-0.0303,-0.0303,0,0,0.0178,0.0165,0.0167,0.015,0.0129,0.0127,0.0088,0.008,0.0079,-0.0,-0.0019,-0.0073,-0.014,-0.0169,-0.0187,-0.0202,-0.0223,-0.0226,-0.022,-0.0199,-0.0224,-0.0216,-0.0209,-0.0302,-0.0302,-0.0302,0,0,0.0215,0.0202,0.0218,0.0205,0.0185,0.0158,0.0161,0.0124,0.0109,0.0083,0.0028,-0.0006,-0.0084,-0.0117,-0.0147,-0.0129,-0.0188,-0.0157,-0.0086,-0.011,-0.0102,-0.0096,-0.0137,-0.0135,-0.0151,-0.0151,-0.0151,0,0.0235,0.0252,0.022,0.0232,0.0229,0.0177,0.0195,0.0171,0.0126,0.0131,0.0089,0.0014,-0.0052,-0.0065,-0.007,-0.0111,-0.0143,-0.0111,-0.0098,-0.0092,-0.0088,-0.0131,-0.013,-0.0147,-0.0147,-0.0148,-0.0148,0,0.0283,0.0295,0.0305,0.03,0.0291,0.0298,0.0265,0.0261,0.023,0.0209,0.0194,0.0112,0.0077,0.0039,-0.0019,-0.0014,-0.0055,-0.0087,-0.0111,-0.0073,-0.0122,-0.0123,-0.014,-0.0141,-0.0143,-0.0144,0,0,0.0329,0.0339,0.0342,0.0361,0.0332,0.0337,0.034,0.0341,0.0378,0.0314,0.0354,0.0255,0.0226,0.0191,0.0122,0.009,0.0071,0.0018,0.0015,-0.0008,0.0006,-0.0061,-0.0069,0.004,0.0041,0.0041,-0.0047,0,0.0376,0.0426,0.0407,0.0449,0.0472,0.0438,0.0461,0.0456,0.0439,0.0463,0.0394,0.0399,0.0279,0.0281,0.0223,0.0115,0.0076,0.0098,-0.0039,-0.0043,-0.0095,-0.0069,-0.0054,-0.0134,-0.0049,-0.0049,-0.0049,0,0.0425,0.0456,0.051,0.0554,0.0564,0.058,0.0624,0.0644,0.0656,0.0653,0.0634,0.0582,0.0526,0.0432,0.0269,0.0284,0.0159,0.0066,0.006,-0.0028,-0.011,-0.0158,-0.014,-0.0051,-0.0051,-0.0051,-0.005,0,0.0483,0.0527,0.0579,0.0587,0.0623,0.0657,0.0685,0.071,0.0775,0.0796,0.085,0.0749,0.0731,0.0564,0.0342,0.0312,0.0164,0.0101,-0.0074,-0.0081,-0.0106,-0.0117,0.0011,0.0011,0.0011,0.0012,0.0012,0,0.0539,0.0584,0.0619,0.065,0.0754,0.0745,0.0865,0.0885,0.0954,0.1068,0.0969,0.1016,0.0766,0.0641,0.0415,0.0164,0.0215,-0.0048,-0.0098,-0.0077,-0.0084,-0.0039,-0.0043,0.0008,0.0009,0.001,0.001,0,0.0596,0.061,0.069,0.0751,0.0784,0.0867,0.1001,0.1094,0.1144,0.129,0.1319,0.1224,0.1041,0.0776,0.0501,0.0277,0.0044,-0.0052,-0.0024,-0.007,-0.021,-0.0209,-0.0259,-0.0262,-0.0264,-0.0266,-0.0268,0,0.0632,0.0673,0.0777,0.0855,0.089,0.1016,0.1116,0.119,0.1307,0.1421,0.1504,0.1378,0.1282,0.0833,0.0427,0.0034,0.001,-0.0187,-0.0245,-0.0188,-0.0233,-0.0228,-0.0223,-0.025,-0.0252,-0.0253,-0.0254,0,0.071,0.0742,0.0817,0.0978,0.1089,0.1225,0.1375,0.1476,0.1593,0.1723,0.1794,0.172,0.1286,0.0854,0.0324,0.0058,-0.0133,-0.0226,-0.0145,-0.0188,-0.0189,-0.023,-0.0224,-0.0264,-0.0263,-0.0263,-0.0262,-0.0262,0.0779,0.0857,0.0962,0.1107,0.1273,0.1416,0.1551,0.1684,0.1867,0.2024,0.1936,0.1848,0.1368,0.0641,0.0198,-0.0241,-0.0233,-0.0384,-0.0376,-0.0368,-0.0355,-0.036,-0.0467,-0.0467,-0.0467,-0.0467,-0.0467,0,0.0855,0.0943,0.1086,0.127,0.1446,0.1499,0.1736,0.1844,0.2057,0.2113,0.2143,0.1669,0.1183,0.0686,0.0017,-0.0405,-0.0422,-0.0522,-0.0441,-0.043,-0.0419,-0.0406,-0.0533,-0.0534,-0.0534,-0.0535,0,0,0.0904,0.1019,0.1071,0.1355,0.1511,0.172,0.1851,0.2029,0.2145,0.2168,0.2128,0.1912,0.1314,0.0816,0.0237,-0.0123,-0.0173,-0.0205,-0.0115,0.0059,0.0075,-0.0313,-0.0276,0,0,0,0,0]}],[{"header":{"parameterUnit":"m.s-1","parameterCategory":2,"la1":30.2991,"la2":30.254,"lo1":-89.0895,"lo2":-89.0444,"dy":0.0017,"dx":0.0017,"nx":28,"ny":28,"refTime":"2026-01-02T03:00:00:Z","depth":"4","parameterNumber":2,"parameterNumberName":"U-component_of_CURRENTS"},"data":[0,0,0,0,0,0,0,0,0,0,0,0,0,0,0,0,0,0,0,0,0,0,0,0,0,0,0,0,0,0,0,0,0,0,0,0,0,0,0,0,0,0,0,0,0,0,0,0,0,0,0,0,0,0,0,0,0,0,0.1612,0.1613,0,0.1689,0.169,0.1691,0.1756,0.1757,0.1758,0.1759,0.1885,0.1888,0.189,0,0,0,0,0,0,0,0,0,0,0,0,0,0.1486,0.1488,0.1612,0.1613,0.1614,0.1689,0.169,0.1691,0.1756,0.1757,0.1758,0.1759,0.1884,0.1887,0.189,0,0,0,0,0,0,0,0,0,0,0,0,0,0.1547,0.1489,0.1612,0.1658,0.1663,0.1689,0.169,0.1691,0.1755,0.1757,0.1758,0.176,0.1883,0.1887,0.1891,0.1885,0,0,0.1902,0.1904,0,0,0,0,0,0,0,0,0.1544,0.1552,0.165,0.1655,0.166,0.1717,0.1692,0.1759,0.1755,0.1717,0.1759,0.176,0.1834,0.1842,0.1849,0.1891,0.1897,0.1902,0.1905,0.1906,0.1907,0,0,0,0,0,0,0,0.154,0.1548,0.164,0.1651,0.1657,0.1663,0.1673,0.1705,0.1766,0.1721,0.1726,0.1739,0.1837,0.1845,0.1853,0.1898,0.1902,0.1906,0.1908,0.1909,0.2101,0.2104,0,0,0,0,0,0,0.1536,0.1545,0.1638,0.1643,0.1607,0.1664,0.1676,0.1695,0.1764,0.1777,0.1737,0.1742,0.1838,0.1848,0.1857,0.1982,0.1906,0.191,0.1912,0.2098,0.2101,0.2105,0,0,0,0,0,0,0.1533,0.1544,0.1634,0.1597,0.1609,0.1666,0.1686,0.1696,0.1743,0.1777,0.179,0.178,0.184,0.1852,0.1939,0.1983,0.1911,0.1915,0.2095,0.2099,0.2103,0.215,0,0,0,0,0,0,0.1529,0.1542,0.1568,0.1597,0.1611,0.168,0.1686,0.1696,0.1748,0.1755,0.1817,0.1828,0.1842,0.1934,0.1943,0.1986,0.1918,0.2091,0.2097,0.2102,0.2145,0.2155,0.2164,0,0,0,0,0,0.1524,0.1546,0.1569,0.1581,0.1641,0.1681,0.169,0.1731,0.1749,0.1777,0.1834,0.1828,0.1974,0.1939,0.1949,0.1995,0.2088,0.2095,0.2101,0.214,0.2153,0.2164,0,0,0,0,0,0,0.1506,0.1556,0.1581,0.162,0.1664,0.1694,0.1724,0.175,0.1813,0.1835,0.1862,0.1878,0.1975,0.1981,0.1942,0.207,0.2031,0.204,0.2058,0.207,0.2079,0.2072,0.1921,0,0,0,0,0,0.1514,0.155,0.1594,0.1632,0.1653,0.1695,0.1722,0.1756,0.1806,0.1836,0.189,0.1947,0.2,0.2034,0.2086,0.2146,0.2155,0.2185,0.2195,0.2203,0.2207,0.2268,0.2282,0.2126,0.2126,0.2125,0,0,0.1511,0.1552,0.1569,0.1632,0.1666,0.1714,0.1716,0.1772,0.1827,0.184,0.1948,0.1992,0.2029,0.211,0.2152,0.2124,0.2254,0.2211,0.2217,0.2217,0.2276,0.2291,0.2304,0.213,0.2129,0.2128,0,0,0.1523,0.1568,0.16,0.1645,0.1716,0.1749,0.1774,0.184,0.1885,0.1981,0.2009,0.2076,0.217,0.2195,0.2216,0.2308,0.2311,0.234,0.2373,0.2433,0.2445,0.2456,0.2484,0.2497,0.2335,0.2335,0.2335,0,0.1526,0.158,0.1616,0.1668,0.1713,0.177,0.182,0.1871,0.1968,0.2009,0.2033,0.2178,0.2202,0.2275,0.2311,0.2326,0.2361,0.2318,0.2442,0.2454,0.2464,0.249,0.2504,0.2338,0.2338,0.2337,0.2337,0,0.1559,0.1618,0.1643,0.1734,0.1783,0.1841,0.1911,0.1982,0.205,0.2103,0.222,0.2268,0.2348,0.2367,0.2366,0.2457,0.2459,0.2452,0.2403,0.2482,0.2505,0.2519,0.2342,0.2341,0.234,0.234,0,0,0.1529,0.1642,0.1659,0.1712,0.1828,0.1869,0.1964,0.2053,0.2124,0.2226,0.2312,0.2396,0.2434,0.246,0.2478,0.2516,0.2607,0.2523,0.2525,0.2533,0.2741,0.2559,0.2556,0.2638,0.2641,0.2644,0.2724,0,0.1554,0.1649,0.1705,0.181,0.1864,0.1945,0.2028,0.2121,0.2213,0.2317,0.2368,0.2474,0.2467,0.2522,0.2563,0.2624,0.2649,0.2585,0.2678,0.268,0.2494,0.2568,0.2653,0.2734,0.2737,0.2739,0.2741,0,0.1571,0.1641,0.1735,0.1856,0.1886,0.1963,0.2101,0.2187,0.2321,0.2392,0.2494,0.2557,0.2654,0.2626,0.2753,0.273,0.2737,0.2753,0.2756,0.2577,0.2524,0.2642,0.2765,0.2763,0.2762,0.276,0.2758,0,0.1532,0.166,0.1738,0.1785,0.1928,0.199,0.2079,0.2217,0.2305,0.246,0.2547,0.2663,0.2756,0.2808,0.2845,0.2835,0.2951,0.2935,0.2762,0.2749,0.2865,0.2852,0.2985,0.2985,0.2984,0.2984,0.2984,0,0.153,0.1596,0.1733,0.1782,0.1879,0.1991,0.2117,0.2211,0.2373,0.2469,0.2599,0.2684,0.2816,0.2889,0.2892,0.2871,0.2996,0.2776,0.2763,0.2883,0.2872,0.2874,0.286,0.2987,0.2987,0.2986,0.2985,0,0.1469,0.1564,0.1654,0.1809,0.1865,0.1938,0.2129,0.221,0.2388,0.252,0.258,0.2761,0.286,0.2924,0.3007,0.2924,0.2916,0.2851,0.2969,0.2961,0.2665,0.2653,0.2705,0.2699,0.2694,0.269,0.2687,0,0.144,0.1486,0.165,0.1702,0.1778,0.1913,0.1995,0.219,0.2269,0.2529,0.256,0.2739,0.2817,0.2807,0.2881,0.2869,0.2813,0.2791,0.2725,0.2656,0.264,0.2636,0.263,0.2679,0.2678,0.2677,0.2676,0,0.1366,0.1435,0.1497,0.1611,0.1703,0.1802,0.1935,0.1994,0.2204,0.2394,0.2496,0.256,0.2649,0.2703,0.2696,0.2676,0.2814,0.2741,0.275,0.2688,0.2626,0.2614,0.2614,0.2659,0.2661,0.2663,0.2664,0,0.1291,0.1304,0.1391,0.1476,0.1566,0.1625,0.1746,0.1849,0.1966,0.225,0.2275,0.2453,0.2622,0.26,0.2598,0.257,0.2536,0.2451,0.2475,0.2495,0.2383,0.2271,0.219,0,0,0,0,0,0.1197,0.1193,0.1256,0.1309,0.1388,0.1457,0.1649,0.1779,0.1994,0.2008,0.2144,0.2209,0.2276,0.2372,0.2298,0.2478,0.2518,0.238,0.2426,0.2567,0.2587,0.2472,0,0,0,0,0,0,0.1128,0.1157,0.1188,0.1129,0.1145,0.1221,0.1343,0.1527,0.1557,0.1802,0.1851,0.2042,0.2128,0.2259,0.2232,0.2256,0.2238,0.2495,0.2489,0.2557,0.2574,0.2589,0.2478,0,0,0,0,0]},{"header":{"parameterUnit":"m.s-1","parameterCategory":2,"la1":30.2991,"la2":30.254,"lo1":-89.0895,"lo2":-89.0444,"dy":0.0017,"dx":0.0017,"nx":28,"ny":28,"refTime":"2026-01-02T03:00:00:Z","depth":"4","parameterNumber":3,"parameterNumberName":"V-component_of_CURRENTS"},"data":[0,0,0,0,0,0,0,0,0,0,0,0,0,0,0,0,0,0,0,0,0,0,0,0,0,0,0,0,0,0,0,0,0,0,0,0,0,0,0,0,0,0,0,0,0,0,0,0,0,0,0,0,0,0,0,0,0,0,0.0052,0.0051,0,0.0007,0.0007,0.0006,-0.0029,-0.0029,-0.003,-0.003,-0.013,-0.0132,-0.0134,0,0,0,0,0,0,0,0,0,0,0,0,0,0.0066,0.0066,0.0052,0.0051,0.0051,0.0007,0.0007,0.0006,-0.0029,-0.0029,-0.003,-0.003,-0.0129,-0.0132,-0.0135,0,0,0,0,0,0,0,0,0,0,0,0,0,0.0043,0.0066,0.0052,0.0029,0.0027,0.0007,0.0006,0.0006,-0.0029,-0.0029,-0.003,-0.003,-0.0128,-0.0131,-0.0135,-0.015,0,0,-0.0146,-0.0148,0,0,0,0,0,0,0,0,0.0045,0.0043,0.0033,0.0031,0.0028,-0.0005,-0.0025,-0.0049,-0.0029,-0.0009,-0.003,-0.003,-0.0092,-0.0099,-0.0107,-0.0155,-0.0159,-0.0146,-0.0149,-0.015,-0.0151,0,0,0,0,0,0,0,0.0046,0.0044,0.0033,0.0032,0.0029,0.0007,0.0004,-0.003,-0.005,-0.0011,-0.0013,-0.0016,-0.0094,-0.0103,-0.011,-0.0161,-0.0146,-0.015,-0.0152,-0.0153,-0.0244,-0.0244,0,0,0,0,0,0,0.0057,0.0046,0.0034,0.0032,0.0037,0.0007,0.0003,0.0005,-0.0048,-0.0056,-0.0016,-0.0018,-0.0097,-0.0105,-0.0113,-0.0139,-0.015,-0.0154,-0.0156,-0.0243,-0.0244,-0.0244,0,0,0,0,0,0,0.0057,0.0056,0.0036,0.0038,0.0034,0.0008,0.001,0.0004,-0.0005,-0.0051,-0.0061,-0.002,-0.0098,-0.0108,-0.0142,-0.0143,-0.0155,-0.0159,-0.0243,-0.0244,-0.0244,-0.0188,0,0,0,0,0,0,0.0058,0.0057,0.0061,0.0039,0.0035,0.003,0.001,0.0004,-0.0006,-0.0009,-0.0058,-0.0067,-0.0099,-0.0136,-0.0146,-0.0148,-0.0161,-0.0243,-0.0243,-0.0244,-0.019,-0.0186,-0.0184,0,0,0,0,0,0.0059,0.0069,0.0062,0.006,0.0042,0.0031,0.0026,0.0005,-0.0005,-0.0006,-0.0041,-0.0066,-0.0146,-0.0139,-0.015,-0.0154,-0.0243,-0.0243,-0.0244,-0.0191,-0.0187,-0.0184,0,0,0,0,0,0,0.0076,0.0065,0.0058,0.0064,0.005,0.0025,0.0024,0.0009,-0.0018,-0.0022,-0.0067,-0.0079,-0.011,-0.014,-0.0132,-0.0182,-0.0199,-0.0202,-0.0155,-0.0152,-0.0149,-0.0141,-0.0164,0,0,0,0,0,0.0084,0.0089,0.0072,0.0077,0.0073,0.0049,0.0042,0.0029,0.0003,-0.0009,-0.0043,-0.0083,-0.0121,-0.0141,-0.0177,-0.0203,-0.024,-0.0214,-0.0211,-0.0208,-0.0209,-0.0264,-0.0266,-0.0246,-0.0246,-0.0246,0,0,0.0093,0.0087,0.009,0.0081,0.0069,0.0068,0.0044,0.0038,0.0034,-0.0017,-0.0035,-0.0074,-0.0125,-0.0154,-0.0171,-0.0179,-0.0233,-0.0209,-0.0206,-0.0209,-0.0265,-0.0267,-0.0269,-0.0246,-0.0246,-0.0246,0,0,0.0114,0.0108,0.0119,0.0112,0.0101,0.0085,0.0086,0.0063,0.005,0.003,-0.0011,-0.005,-0.0099,-0.0139,-0.0166,-0.017,-0.0215,-0.018,-0.0159,-0.0212,-0.0214,-0.0216,-0.026,-0.0267,-0.0179,-0.0179,-0.0179,0,0.0124,0.0136,0.012,0.0127,0.0124,0.0096,0.0104,0.0087,0.0056,0.0042,0.0031,-0.0052,-0.0094,-0.0141,-0.0143,-0.0164,-0.0197,-0.0165,-0.0207,-0.0211,-0.0214,-0.0258,-0.0266,-0.0176,-0.0177,-0.0177,-0.0177,0,0.0151,0.016,0.0167,0.0166,0.016,0.0163,0.0141,0.0131,0.011,0.0084,0.0041,-0.0015,-0.0064,-0.0087,-0.0117,-0.0161,-0.0178,-0.0195,-0.0212,-0.0212,-0.0259,-0.0269,-0.0173,-0.0173,-0.0174,-0.0175,0,0,0.0173,0.0185,0.0187,0.0196,0.0182,0.0181,0.0174,0.0154,0.0153,0.0107,0.009,0.0017,-0.0014,-0.0047,-0.0092,-0.0143,-0.0194,-0.0173,-0.0177,-0.0209,-0.0306,-0.0296,-0.0306,-0.0217,-0.0218,-0.0219,-0.0327,0,0.0198,0.0226,0.022,0.024,0.0251,0.0227,0.0229,0.0205,0.0179,0.0156,0.0082,0.0052,0.0002,-0.0013,-0.0075,-0.0161,-0.0218,-0.0163,-0.0308,-0.0312,-0.0298,-0.0316,-0.0224,-0.0334,-0.0336,-0.0338,-0.0339,0,0.0222,0.0239,0.0268,0.0284,0.0287,0.0295,0.029,0.0291,0.0246,0.0228,0.0174,0.0119,0.0038,0.0003,-0.0153,-0.0113,-0.0206,-0.0279,-0.0285,-0.0303,-0.0321,-0.0338,-0.0357,-0.0355,-0.0354,-0.0353,-0.0352,0,0.0242,0.0269,0.0295,0.03,0.0314,0.0325,0.0333,0.031,0.0324,0.0278,0.0281,0.0167,0.0131,-0.0007,-0.0163,-0.0155,-0.0339,-0.0346,-0.0431,-0.0431,-0.0431,-0.0428,-0.0466,-0.0466,-0.0465,-0.0465,-0.0465,0,0.0264,0.0284,0.0313,0.0328,0.0366,0.0365,0.0402,0.0395,0.0398,0.0415,0.033,0.0315,0.0128,0.0,-0.0152,-0.032,-0.0334,-0.0434,-0.0462,-0.0404,-0.0397,-0.0438,-0.0433,-0.0469,-0.0468,-0.0468,-0.0467,0,0.0268,0.0293,0.0324,0.0357,0.0378,0.0404,0.0465,0.0494,0.05,0.0522,0.0516,0.042,0.0263,0.0057,-0.0172,-0.0283,-0.0461,-0.0524,-0.0448,-0.0469,-0.0519,-0.051,-0.0611,-0.0612,-0.0612,-0.0613,-0.0613,0,0.0264,0.0284,0.0343,0.0384,0.0404,0.0459,0.0506,0.0538,0.0576,0.0586,0.0596,0.047,0.0373,0.0071,-0.0155,-0.0453,-0.0494,-0.0577,-0.0551,-0.0519,-0.0536,-0.0526,-0.0517,-0.0614,-0.0614,-0.0614,-0.0614,0,0.0241,0.0268,0.03,0.0404,0.0466,0.0531,0.0601,0.0646,0.0686,0.069,0.0672,0.0524,0.0344,0.0092,-0.0149,-0.0362,-0.0515,-0.0583,-0.0583,-0.0559,-0.0523,-0.0538,-0.0528,-0.0616,-0.0616,-0.0616,-0.0616,0,0.0217,0.0242,0.0314,0.0411,0.049,0.058,0.0622,0.0681,0.0724,0.0744,0.0728,0.0549,0.0437,0.0138,-0.0087,-0.0297,-0.0337,-0.0383,-0.0394,-0.0394,-0.0303,-0.0225,-0.0254,0,0,0,0,0,0.019,0.0243,0.0324,0.0429,0.0516,0.0579,0.0674,0.0716,0.0762,0.0765,0.0758,0.0592,0.0305,0.0178,-0.0029,-0.0121,-0.0399,-0.037,-0.0463,-0.0627,-0.0625,-0.0555,0,0,0,0,0,0,0.0175,0.0241,0.0312,0.0431,0.0514,0.0614,0.0683,0.0726,0.0733,0.0751,0.0597,0.0546,0.0248,0.0411,-0.0036,-0.0099,-0.0181,-0.0508,-0.0512,-0.0628,-0.0626,-0.0624,-0.0552,0,0,0,0,0]}]]